Погода в Беылагане

Погода в Беылагане : погода сейчас, прогноз погоды и архив. Всё, что Вы хотите узнать о погоде в Беылагане!

Поиск расширенной информации на нашем сайте:

Другие новости

Новости СМИ2

Главная страница сайта

Новости сайта

02.10.2013

Напоминаем, что на нашем новом сайте вы можете получить высокодетализированные прогнозы погоды по пунктам России, СНГ и мира (включающие важные для авиации метеовеличины, такие как направление и скорость ветра, видимость, явления погоды, количество и форма облачности, нижняя и верхняя граница облачности), а также ознакомиться с разнообразными материалами по авиационной метеорологии и подборкой полезных ссылок на эту тему.

Сайт Метеоцентр.Азия посвящён разработке технологий оптимизации авиаметеорологического обслуживания, включая проектирование и перспективное создание нескольких автоматизированных авиаметеорологических систем:
- система выпуска высокодетальных прогностических карт явлений погоды для нижнего воздушного пространства по России и ближнему зарубежью;
- система верификации прогнозов TAF (выпускаемых синоптиками официальных АМСГ РФ и ближнего зарубежья) и AUTOTAF (выпускаемых сайтом Метеоцентр.Азия) - выявление ошибок, онлайн-сопоставление с фактической погодой METAR, автоматическое внесение коррективов в прогнозы при резком отклонении фактической погоды от прогноза, подсчёт оправдываемости прогнозов по элементам и в целом;
- система обработки, анализа и отображения авиаметеорологической информации для применения провайдерами метеорологической информации.

Рекомендуем: камазовские запчасти

Погода в Беылагане - сегодня

Время (UTC), дата Ветер
(°,м/с) 
Видим.   Явления Облачность Т
(°С)
Тd
(°С)
f(%) Тe
(°С)
Pmin
(гПа)
dP
(гПа)
Po
(мм)
O2
(г/м3)
Тmin Tmax R s Состояние
почвы
03 27.03.17 250 (З) 10 км    ясно 
+4.8 +2.6 86 +6  1013.9  0.2  754  298           
06 27.03.17 200 (Ю) 10 км    9/0 средняя 
[Ac trans]
+15.3 +6.2 55 +17  1014  0.3  754  287           
09 27.03.17 090 (В) 10 км    3/0 средняя 
[Ac lent]
+21.8 +5.3 34 +22  1011.8  -1.9  753  280           
12 27.03.17 110 (В) 10 км    3/0 средняя 
[Ac lent]
+23.5 +3.6 27 +24  1009.1  -2.7  751  278           
15 27.03.17 140 (ЮВ) 10 км    4/0 средняя 
[Ac trans]
+22.5 +5.9 34 +23  1008.3  -0.7  750  278           
21 27.03.17 270 (З) 10 км    ясно 
+11.1 +6.7 74 +12  1010.2  1.2  751  290           
00 28.03.17 070 (В) 10 км    6/0 средняя 
[Ac trans]
+7.7 +5.5 86 +9  1009.5  -0.9  751  293           
03 28.03.17 тихо ()   10 км    10/10 600 м 
[St]
+7.8 +5.8 87 +8  1012.5  753  294           
06 28.03.17 360 (С) 10 км    10/10 600 м 
[St]
+10.4 +5.9 74 +12  1017.2  4.6  756  293           
09 28.03.17 340 (С) 10 км    10/10 600 м 
[St]
+10.8 +2.5 56 +12  1019.3  2.1  758  293           
12 28.03.17 230 (ЮЗ) 10 км    10/10 600 м 
[St]
+11 +2.1 54 +12  1018.7  -0.6  757  293           
15 28.03.17 230 (ЮЗ) 10 км    10/10 600 м 
[St]
+9.9 +3.8 66 +10  1018.6  -0.1  757  294           
18 28.03.17 250 (З) 10 км    ясно 
+8.6 +2.5 65 +9  1018.9  0.3  758  296    +22.5       
21 28.03.17 340 (С) 10 км    ясно 
+6.8 +1.9 71 +8  1018.4  -0.5  757  297           
00 29.03.17 230 (ЮЗ) 10 км    ясно 
+3.2 +0.3 81 +4  1017.3  -1.2  756  301           
03 29.03.17 250 (З) 10 км    ясно 
+3.8 -1.5 68 +5  1017.7  0.4  757  301           
06 29.03.17 200 (Ю) 10 км    ясно 
+14 -0.5 37 +15  1019  0.2  758  291           
09 29.03.17 340 (С) 10 км    ясно 
+17.7 +0 30 +19  1018.7  -0.2  758  287           
12 29.03.17 320 (СЗ) 10 км    ясно 
+19.9 +2.5 31 +21  1017.7  -1.2  757  284           
15 29.03.17 тихо ()   10 км    ясно 
+19.2 -1.7 24 +19  1018.6  758  285           
18 29.03.17 110 (В) 10 км    ясно 
+10.5 +1.1 52 +11  1022.6  3.7  760  295    +20.1       
21 29.03.17 110 (В) 10 км    4/0 средняя 
[Ac trans]
+8.5 +2.5 66 +9  1024.4  1.8  762  297           
00 30.03.17 320 (СЗ) 10 км    4/0 средняя 
[Ac trans]
+5.5 +2 78 +6  1025.2  0.7  762  301           
03 30.03.17 090 (В) 10 км    10/10 600 м 
[St]
+3.5 +0.9 83 +4  1025.7  0.5  763  303           
06 30.03.17 360 (С) 10 км    10/10 600 м 
[St]
+9.1 +4.1 71 +10  1026.8  1.2  763  297           
Время (UTC), дата Ветер
(°,м/с) 
Видим.   Явления Облачность Т
(°С)
Тd
(°С)
f(%) Тe
(°С)
Pmin
(гПа)
dP
(гПа)
Po
(мм)
O2
(г/м3)
Тmin Tmax R s Состояние
почвы

Для получения пояснительной информации подведите курсор к названию столбца.

ПОГОДА в Беылагане - архив

Всё, что Вы хотите узнать о погоде в Беылагане - удобно и подробно!

Выберите нужную дату (начиная с 1 января 2015* года) и нажмите кнопку "Найти".
Будут отображены архивные сводки погоды по пункту Беылаган, начиная с указанной даты.


Отображать данные в формате CSV (для использования в таблицах Excel)


Внимание! Наш архив погоды предназначен исключительно для личного некоммерческого использования в познавательных целях. Если Вам необходимы официальные справки о состоянии погоды (для производственных, юридических, коммерческих и т.п. целей), обращайтесь в органы Росгидромета.

*Примечание: данная дата относится к архиву по метеостанциям СССР (Россия, СНГ, Балтия).
Архив по метеостанциям Зарубежной Европы и Азии (кроме Китая) хранится 10 дней, по другим регионам земного шара (Китай, Африка, Америка, Австралия, Океания) - 1 день.

Беылаган - район местоположения метеостанции


Название, широта, долгота, высота метеостанции:
Беылаган (АМСГ) 39.8°ш. 47.8°д. 72 м над ур. моря [Азербайджан]

Дополнительная информация

В oтличие oт бoльшинства пoгoдных сайтoв мы публикуем пoдрoбную метеoинфoрмацию в детальнoм прoфессиoнальнoм фoрмате.

Характеристики температуры и влажнoсти вoздуха измеряются на высoте 2 м в тени вдали oт зданий и деревьев.
Скoрoсть ветра измеряется на высoте 10 м (на урoвне рoста челoвека скoрoсть ветра ниже в 1.5-2 раза). Если метеoстанция нахoдится в гoрoде или в лесу, тo скoрoсть ветра занижена на 2-4 м/с пo сравнению с oткрытым местoм. Скoрoсть ветра над акватoриями крупных рек и oзёр, а также на вершинах хoлмoв на 2-5 м/с выше, чем в oбычных услoвиях.
Атмoсфернoе давление в разных тoчках местнoсти мoжет значительнo oтличаться oт давления на метеoстанции, в зависимoсти oт услoвий рельефа (при пoдъёме на 10 м давление пoнижается примернo на 1 мм рт.ст.).